Location: Ballingbuur
(53.0000°N, 5.7667°E)
Time: 21:13:58
(UTC+00:00)

NOSS 3-1 (C) - Pass Details

Date: 29 November 2020
Orbit: 738 x 1470 km, 63.4° (Epoch: 21 January)

Event Time Altitude Azimuth Distance (km) Brightness Sun altitude
Exits shadow 05:55:00 13° 314° (NW) 2,665 5.2 -12.8°
Maximum altitude 06:01:11 58° 32° (NNE) 1,385 4.4 -11.9°
Drops below altitude 10° 06:09:17 10° 110° (ESE) 3,391 7.9 -10.8°
Sets 06:12:26 0° 114° (ESE) 4,441 9.3 -10.3°
